Time,TemperatureF,DewpointF,PressureIn,WindDirection,WindDirectionDegrees,WindSpeedMPH,WindSpeedGustMPH,Humidity,HourlyPrecipIn,Conditions,Clouds,dailyrainin,SoftwareType,DateUTC
2013-02-07 00:01:00,61.2,60.1,29.98,ESE,102,7.0,7.0,96,0.09,,,0.01,Wunderground v.1.15,2013-02-07 06:01:00,
2013-02-07 00:07:00,61.1,60.0,29.98,ESE,104,6.0,11.0,96,0.09,,,0.02,Wunderground v.1.15,2013-02-07 06:07:00,
2013-02-07 00:13:00,60.9,59.8,29.98,ENE,70,8.0,8.0,96,0.07,,,0.03,Wunderground v.1.15,2013-02-07 06:13:00,
2013-02-07 00:19:00,60.8,59.9,29.96,ENE,64,8.0,8.0,97,0.07,,,0.03,Wunderground v.1.15,2013-02-07 06:19:00,
2013-02-07 00:25:00,60.7,59.8,29.95,NE,40,6.0,8.0,97,0.04,,,0.03,Wunderground v.1.15,2013-02-07 06:25:00,
2013-02-07 00:30:00,60.6,59.7,29.95,East,91,3.0,5.0,97,0.00,,,0.04,Wunderground v.1.15,2013-02-07 06:30:00,
2013-02-07 00:36:00,60.6,59.7,29.95,ENE,67,6.0,6.0,97,0.00,,,0.04,Wunderground v.1.15,2013-02-07 06:36:00,
2013-02-07 00:42:00,60.7,59.8,29.95,East,97,9.0,9.0,97,0.00,,,0.04,Wunderground v.1.15,2013-02-07 06:42:00,
2013-02-07 00:47:00,60.9,60.0,29.94,East,81,13.0,13.0,97,0.00,,,0.04,Wunderground v.1.15,2013-02-07 06:47:00,
2013-02-07 00:53:00,61.0,60.1,29.94,East,79,12.0,12.0,97,0.00,,,0.04,Wunderground v.1.15,2013-02-07 06:53:00,
2013-02-07 00:59:00,61.2,60.1,29.93,East,87,4.0,12.0,96,0.00,,,0.04,Wunderground v.1.15,2013-02-07 06:59:00,
2013-02-07 01:05:00,61.1,60.0,29.93,ENE,63,5.0,9.0,96,0.00,,,0.04,Wunderground v.1.15,2013-02-07 07:05:00,
2013-02-07 01:11:00,60.9,59.8,29.93,East,85,7.0,11.0,96,0.00,,,0.04,Wunderground v.1.15,2013-02-07 07:11:00,
2013-02-07 01:17:00,60.8,59.7,29.92,NE,53,2.0,12.0,96,0.00,,,0.05,Wunderground v.1.15,2013-02-07 07:17:00,
2013-02-07 01:23:00,60.7,59.8,29.93,East,94,7.0,9.0,97,0.12,,,0.06,Wunderground v.1.15,2013-02-07 07:23:00,
2013-02-07 01:29:00,60.6,59.7,29.94,ENE,75,4.0,9.0,97,0.06,,,0.07,Wunderground v.1.15,2013-02-07 07:29:00,
2013-02-07 01:35:00,60.4,59.5,29.92,NNE,27,5.0,8.0,97,0.06,,,0.07,Wunderground v.1.15,2013-02-07 07:35:00,
2013-02-07 01:41:00,60.5,59.6,29.91,East,90,6.0,10.0,97,0.17,,,0.09,Wunderground v.1.15,2013-02-07 07:41:00,
2013-02-07 01:47:00,60.7,59.8,29.90,East,86,8.0,14.0,97,0.15,,,0.10,Wunderground v.1.15,2013-02-07 07:47:00,
2013-02-07 01:52:00,60.7,59.8,29.90,ESE,104,12.0,12.0,97,0.13,,,0.11,Wunderground v.1.15,2013-02-07 07:52:00,
2013-02-07 01:58:00,60.6,59.7,29.91,ESE,116,13.0,13.0,97,0.10,,,0.12,Wunderground v.1.15,2013-02-07 07:58:00,
2013-02-07 02:03:00,60.5,59.6,29.91,East,101,12.0,16.0,97,0.10,,,0.13,Wunderground v.1.15,2013-02-07 08:03:00,
2013-02-07 02:08:00,60.5,59.9,29.90,East,86,17.0,19.0,98,0.18,,,0.15,Wunderground v.1.15,2013-02-07 08:08:00,
2013-02-07 02:13:00,60.3,59.7,29.88,East,97,15.0,16.0,98,0.27,,,0.17,Wunderground v.1.15,2013-02-07 08:13:00,
2013-02-07 02:18:00,60.2,59.6,29.87,ENE,77,12.0,23.0,98,0.20,,,0.19,Wunderground v.1.15,2013-02-07 08:18:00,
2013-02-07 02:23:00,60.2,59.6,29.86,East,94,15.0,21.0,98,0.29,,,0.21,Wunderground v.1.15,2013-02-07 08:23:00,
2013-02-07 02:28:00,60.2,59.6,29.84,East,97,17.0,22.0,98,0.16,,,0.22,Wunderground v.1.15,2013-02-07 08:28:00,
2013-02-07 02:33:00,60.1,59.8,29.83,East,101,24.0,24.0,99,0.07,,,0.22,Wunderground v.1.15,2013-02-07 08:33:00,
2013-02-07 02:38:00,60.1,59.8,29.83,East,93,17.0,24.0,99,0.04,,,0.22,Wunderground v.1.15,2013-02-07 08:38:00,
2013-02-07 02:43:00,60.1,59.8,29.82,ESE,113,16.0,23.0,99,0.00,,,0.22,Wunderground v.1.15,2013-02-07 08:43:00,
2013-02-07 02:48:00,60.3,60.0,29.83,East,94,13.0,24.0,99,0.00,,,0.22,Wunderground v.1.15,2013-02-07 08:48:00,
2013-02-07 02:53:00,60.4,60.1,29.85,East,94,10.0,17.0,99,0.00,,,0.22,Wunderground v.1.15,2013-02-07 08:53:00,
2013-02-07 02:58:00,60.5,60.2,29.86,ENE,65,7.0,17.0,99,0.00,,,0.22,Wunderground v.1.15,2013-02-07 08:58:00,
2013-02-07 03:03:00,60.6,60.3,29.86,East,83,11.0,17.0,99,0.00,,,0.22,Wunderground v.1.15,2013-02-07 09:03:00,
2013-02-07 03:08:00,60.8,60.5,29.85,East,91,10.0,19.0,99,0.00,,,0.22,Wunderground v.1.15,2013-02-07 09:08:00,
2013-02-07 03:13:00,61.0,60.7,29.85,ENE,74,9.0,15.0,99,0.00,,,0.22,Wunderground v.1.15,2013-02-07 09:13:00,
2013-02-07 03:18:00,61.1,60.8,29.85,ENE,68,14.0,21.0,99,0.00,,,0.22,Wunderground v.1.15,2013-02-07 09:18:00,
2013-02-07 03:23:00,61.2,60.6,29.85,ENE,78,6.0,17.0,98,0.00,,,0.22,Wunderground v.1.15,2013-02-07 09:23:00,
2013-02-07 03:28:00,61.1,60.5,29.83,ENE,68,21.0,22.0,98,0.38,,,0.24,Wunderground v.1.15,2013-02-07 09:28:00,
2013-02-07 03:33:00,61.0,60.4,29.84,ESE,103,20.0,20.0,98,0.30,,,0.27,Wunderground v.1.15,2013-02-07 09:33:00,
2013-02-07 03:38:00,61.0,60.7,29.83,East,91,14.0,22.0,99,0.12,,,0.28,Wunderground v.1.15,2013-02-07 09:38:00,
2013-02-07 03:43:00,61.0,60.7,29.83,ESE,113,9.0,19.0,99,0.10,,,0.28,Wunderground v.1.15,2013-02-07 09:43:00,
2013-02-07 03:48:00,61.0,60.7,29.83,East,79,16.0,21.0,99,0.06,,,0.29,Wunderground v.1.15,2013-02-07 09:48:00,
2013-02-07 03:53:00,61.1,60.8,29.82,ENE,74,15.0,19.0,99,0.06,,,0.29,Wunderground v.1.15,2013-02-07 09:53:00,
2013-02-07 03:58:00,61.0,60.7,29.82,ENE,70,10.0,19.0,99,0.06,,,0.29,Wunderground v.1.15,2013-02-07 09:58:00,
2013-02-07 04:03:00,61.1,60.8,29.83,ESE,118,12.0,18.0,99,0.05,,,0.30,Wunderground v.1.15,2013-02-07 10:03:00,
2013-02-07 04:08:00,61.1,60.8,29.83,ENE,65,7.0,20.0,99,0.07,,,0.31,Wunderground v.1.15,2013-02-07 10:08:00,
2013-02-07 04:13:00,61.1,60.8,29.81,East,85,9.0,19.0,99,0.40,,,0.34,Wunderground v.1.15,2013-02-07 10:13:00,
2013-02-07 04:18:00,61.0,60.7,29.80,ENE,64,10.0,19.0,99,0.46,,,0.38,Wunderground v.1.15,2013-02-07 10:18:00,
2013-02-07 04:23:00,60.9,60.6,29.79,East,82,14.0,21.0,99,0.16,,,0.40,Wunderground v.1.15,2013-02-07 10:23:00,
2013-02-07 04:28:00,60.9,60.6,29.79,ENE,58,12.0,21.0,99,0.42,,,0.43,Wunderground v.1.15,2013-02-07 10:28:00,
2013-02-07 04:33:00,60.8,60.5,29.79,East,86,14.0,22.0,99,0.22,,,0.45,Wunderground v.1.15,2013-02-07 10:33:00,
2013-02-07 04:39:00,60.8,60.5,29.79,East,90,10.0,22.0,99,0.13,,,0.47,Wunderground v.1.15,2013-02-07 10:39:00,
2013-02-07 04:44:00,60.8,60.5,29.78,East,84,15.0,22.0,99,0.11,,,0.47,Wunderground v.1.15,2013-02-07 10:44:00,
2013-02-07 04:49:00,60.9,60.6,29.78,East,95,17.0,23.0,99,0.52,,,0.50,Wunderground v.1.15,2013-02-07 10:49:00,
2013-02-07 04:54:00,60.8,60.5,29.78,ESE,113,13.0,21.0,99,0.70,,,0.53,Wunderground v.1.15,2013-02-07 10:54:00,
2013-02-07 04:59:00,60.8,60.8,29.78,East,94,17.0,23.0,100,0.27,,,0.55,Wunderground v.1.15,2013-02-07 10:59:00,
2013-02-07 05:04:00,60.9,60.9,29.78,East,87,8.0,19.0,100,0.10,,,0.56,Wunderground v.1.15,2013-02-07 11:04:00,
2013-02-07 05:09:00,60.9,60.9,29.78,East,96,14.0,19.0,100,0.10,,,0.56,Wunderground v.1.15,2013-02-07 11:09:00,
2013-02-07 05:14:00,60.9,60.9,29.80,East,99,5.0,16.0,100,0.05,,,0.56,Wunderground v.1.15,2013-02-07 11:14:00,
2013-02-07 05:19:00,61.0,61.0,29.81,North,356,5.0,16.0,100,0.18,,,0.58,Wunderground v.1.15,2013-02-07 11:19:00,
2013-02-07 05:24:00,61.1,61.1,29.82,NNE,23,3.0,7.0,100,0.16,,,0.59,Wunderground v.1.15,2013-02-07 11:24:00,
2013-02-07 05:29:00,60.9,60.9,29.84,NNW,340,5.0,13.0,100,0.70,,,0.63,Wunderground v.1.15,2013-02-07 11:29:00,
2013-02-07 05:34:00,60.6,60.6,29.83,North,356,6.0,12.0,100,4.97,,,0.83,Wunderground v.1.15,2013-02-07 11:34:00,
2013-02-07 05:39:00,60.1,60.1,29.84,NW,324,6.0,16.0,100,1.75,,,1.13,Wunderground v.1.15,2013-02-07 11:39:00,
2013-02-07 05:44:00,59.8,59.8,29.82,North,352,7.0,19.0,100,1.42,,,1.21,Wunderground v.1.15,2013-02-07 11:44:00,
2013-02-07 05:49:00,59.6,59.6,29.81,North,352,19.0,20.0,100,0.80,,,1.34,Wunderground v.1.15,2013-02-07 11:49:00,
2013-02-07 05:54:00,59.5,59.5,29.83,NW,316,6.0,19.0,100,0.38,,,1.38,Wunderground v.1.15,2013-02-07 11:54:00,
2013-02-07 05:59:00,59.5,59.5,29.82,North,352,16.0,19.0,100,1.25,,,1.44,Wunderground v.1.15,2013-02-07 11:59:00,
2013-02-07 06:04:00,59.5,59.5,29.82,NNW,346,8.0,14.0,100,0.46,,,1.50,Wunderground v.1.15,2013-02-07 12:04:00,
2013-02-07 06:09:00,59.5,59.5,29.84,NNW,344,4.0,16.0,100,0.57,,,1.55,Wunderground v.1.15,2013-02-07 12:09:00,
2013-02-07 06:14:00,59.4,59.4,29.85,North,352,5.0,14.0,100,0.75,,,1.59,Wunderground v.1.15,2013-02-07 12:14:00,
2013-02-07 06:19:00,59.4,59.4,29.83,NNE,15,4.0,17.0,100,0.31,,,1.62,Wunderground v.1.15,2013-02-07 12:19:00,
2013-02-07 06:24:00,59.3,59.3,29.83,North,356,6.0,18.0,100,0.38,,,1.65,Wunderground v.1.15,2013-02-07 12:24:00,
2013-02-07 06:29:00,59.3,59.3,29.83,North,11,7.0,18.0,100,0.15,,,1.67,Wunderground v.1.15,2013-02-07 12:29:00,
2013-02-07 06:34:00,59.3,59.3,29.84,NNW,328,5.0,15.0,100,0.10,,,1.67,Wunderground v.1.15,2013-02-07 12:34:00,
2013-02-07 06:39:00,59.3,59.3,29.84,NNW,328,11.0,21.0,100,0.05,,,1.67,Wunderground v.1.15,2013-02-07 12:39:00,
2013-02-07 06:44:00,59.3,59.3,29.85,NNW,335,13.0,18.0,100,0.04,,,1.67,Wunderground v.1.15,2013-02-07 12:44:00,
2013-02-07 06:49:00,59.3,59.3,29.84,NE,39,9.0,18.0,100,0.00,,,1.67,Wunderground v.1.15,2013-02-07 12:49:00,
2013-02-07 06:54:00,59.3,59.3,29.85,North,352,5.0,16.0,100,0.00,,,1.68,Wunderground v.1.15,2013-02-07 12:54:00,
2013-02-07 06:59:00,59.3,59.3,29.85,NNW,347,3.0,16.0,100,0.00,,,1.68,Wunderground v.1.15,2013-02-07 12:59:00,
2013-02-07 07:04:00,59.4,59.4,29.85,NNE,16,4.0,11.0,100,0.04,,,1.69,Wunderground v.1.15,2013-02-07 13:04:00,
2013-02-07 07:09:00,59.4,59.4,29.85,NNW,338,2.0,13.0,100,0.04,,,1.69,Wunderground v.1.15,2013-02-07 13:09:00,
2013-02-07 07:14:00,59.4,59.4,29.84,NE,35,2.0,13.0,100,0.04,,,1.69,Wunderground v.1.15,2013-02-07 13:14:00,
2013-02-07 07:19:00,59.4,59.4,29.84,NE,39,3.0,13.0,100,0.04,,,1.69,Wunderground v.1.15,2013-02-07 13:19:00,
2013-02-07 07:24:00,59.5,59.5,29.84,North,7,3.0,9.0,100,0.00,,,1.69,Wunderground v.1.15,2013-02-07 13:24:00,
2013-02-07 07:29:00,59.5,59.5,29.84,East,89,5.0,9.0,100,0.00,,,1.69,Wunderground v.1.15,2013-02-07 13:29:00,
2013-02-07 07:34:00,59.5,59.5,29.85,East,85,2.0,9.0,100,0.00,,,1.69,Wunderground v.1.15,2013-02-07 13:34:00,
2013-02-07 07:39:00,59.5,59.5,29.84,East,89,7.0,10.0,100,0.00,,,1.69,Wunderground v.1.15,2013-02-07 13:39:00,
2013-02-07 07:44:00,59.5,59.5,29.83,ENE,67,7.0,14.0,100,0.00,,,1.69,Wunderground v.1.15,2013-02-07 13:44:00,
2013-02-07 07:49:00,59.5,59.5,29.83,NE,39,5.0,14.0,100,0.00,,,1.69,Wunderground v.1.15,2013-02-07 13:49:00,
2013-02-07 07:54:00,59.5,59.5,29.83,NNE,30,3.0,6.0,100,0.00,,,1.69,Wunderground v.1.15,2013-02-07 13:54:00,
2013-02-07 07:59:00,59.6,59.6,29.83,ENE,63,4.0,9.0,100,0.00,,,1.69,Wunderground v.1.15,2013-02-07 13:59:00,
2013-02-07 08:04:00,60.1,60.1,29.83,NNE,20,0.0,6.0,100,0.00,,,1.69,Wunderground v.1.15,2013-02-07 14:04:00,
2013-02-07 08:09:00,60.4,60.4,29.83,ENE,74,1.0,8.0,100,0.00,,,1.69,Wunderground v.1.15,2013-02-07 14:09:00,
2013-02-07 08:14:00,60.5,60.5,29.83,ENE,62,2.0,11.0,100,0.00,,,1.69,Wunderground v.1.15,2013-02-07 14:14:00,
2013-02-07 08:19:00,60.8,60.8,29.83,East,82,1.0,11.0,100,0.00,,,1.69,Wunderground v.1.15,2013-02-07 14:19:00,
2013-02-07 08:24:00,61.1,61.1,29.83,NE,50,3.0,5.0,100,0.00,,,1.69,Wunderground v.1.15,2013-02-07 14:24:00,
2013-02-07 08:29:00,61.3,61.3,29.83,NE,56,1.0,6.0,100,0.00,,,1.69,Wunderground v.1.15,2013-02-07 14:29:00,
2013-02-07 08:34:00,61.4,61.4,29.83,ENE,75,3.0,7.0,100,0.00,,,1.69,Wunderground v.1.15,2013-02-07 14:34:00,
2013-02-07 08:39:00,61.2,61.2,29.83,ENE,76,11.0,13.0,100,0.00,,,1.69,Wunderground v.1.15,2013-02-07 14:39:00,
2013-02-07 08:44:00,61.4,61.4,29.83,ENE,64,3.0,7.0,100,0.00,,,1.69,Wunderground v.1.15,2013-02-07 14:44:00,
2013-02-07 08:49:00,61.7,61.7,29.84,NNW,328,2.0,9.0,100,0.00,,,1.69,Wunderground v.1.15,2013-02-07 14:49:00,
2013-02-07 08:54:00,62.0,62.0,29.84,ENE,71,4.0,6.0,100,0.00,,,1.69,Wunderground v.1.15,2013-02-07 14:54:00,
2013-02-07 08:59:00,62.6,62.6,29.84,ENE,61,3.0,7.0,100,0.00,,,1.69,Wunderground v.1.15,2013-02-07 14:59:00,
2013-02-07 09:04:00,62.8,62.8,29.84,ENE,74,2.0,6.0,100,0.00,,,1.69,Wunderground v.1.15,2013-02-07 15:04:00,
2013-02-07 09:09:00,63.2,62.9,29.84,SE,139,1.0,10.0,99,0.00,,,1.69,Wunderground v.1.15,2013-02-07 15:09:00,
2013-02-07 09:14:00,63.7,63.4,29.85,ENE,64,2.0,4.0,99,0.00,,,1.69,Wunderground v.1.15,2013-02-07 15:14:00,
2013-02-07 09:19:00,64.0,63.7,29.85,NE,56,2.0,4.0,99,0.00,,,1.69,Wunderground v.1.15,2013-02-07 15:19:00,
2013-02-07 09:24:00,63.9,63.3,29.85,NNE,20,3.0,6.0,98,0.00,,,1.69,Wunderground v.1.15,2013-02-07 15:24:00,
2013-02-07 09:29:00,64.5,64.2,29.86,NNE,13,2.0,6.0,99,0.00,,,1.69,Wunderground v.1.15,2013-02-07 15:29:00,
2013-02-07 09:34:00,64.9,64.3,29.86,NW,316,3.0,6.0,98,0.00,,,1.69,Wunderground v.1.15,2013-02-07 15:34:00,
2013-02-07 09:39:00,65.6,63.5,29.87,NNW,340,1.0,6.0,93,0.00,,,1.69,Wunderground v.1.15,2013-02-07 15:39:00,
2013-02-07 09:44:00,66.6,63.6,29.87,ESE,103,1.0,3.0,90,0.00,,,1.69,Wunderground v.1.15,2013-02-07 15:44:00,
2013-02-07 09:49:00,67.2,62.5,29.88,NW,311,3.0,3.0,85,0.00,,,1.69,Wunderground v.1.15,2013-02-07 15:49:00,
2013-02-07 09:54:00,67.8,62.1,29.88,West,262,0.0,3.0,82,0.00,,,1.69,Wunderground v.1.15,2013-02-07 15:54:00,
2013-02-07 09:59:00,68.2,62.5,29.87,NW,320,2.0,3.0,82,0.00,,,1.69,Wunderground v.1.15,2013-02-07 15:59:00,
2013-02-07 10:04:00,68.5,62.8,29.88,West,280,0.0,3.0,82,0.00,,,1.69,Wunderground v.1.15,2013-02-07 16:04:00,
2013-02-07 10:09:00,68.6,62.2,29.87,NNE,29,2.0,3.0,80,0.00,,,1.69,Wunderground v.1.15,2013-02-07 16:09:00,
2013-02-07 10:14:00,69.1,62.7,29.88,North,6,0.0,2.0,80,0.00,,,1.69,Wunderground v.1.15,2013-02-07 16:14:00,
2013-02-07 10:19:00,69.0,62.9,29.88,SW,215,2.0,2.0,81,0.00,,,1.69,Wunderground v.1.15,2013-02-07 16:19:00,
2013-02-07 10:24:00,69.3,63.9,29.88,SSW,205,1.0,5.0,83,0.00,,,1.69,Wunderground v.1.15,2013-02-07 16:24:00,
2013-02-07 10:30:00,69.4,63.0,29.88,South,190,4.0,4.0,80,0.00,,,1.69,Wunderground v.1.15,2013-02-07 16:30:00,
2013-02-07 10:35:00,68.8,63.1,29.88,SSW,203,1.0,6.0,82,0.00,,,1.69,Wunderground v.1.15,2013-02-07 16:35:00,
2013-02-07 10:40:00,68.5,62.4,29.89,SW,236,5.0,5.0,81,0.00,,,1.69,Wunderground v.1.15,2013-02-07 16:40:00,
2013-02-07 10:45:00,68.4,63.0,29.89,NNE,20,4.0,6.0,83,0.00,,,1.69,Wunderground v.1.15,2013-02-07 16:45:00,
2013-02-07 10:50:00,69.0,61.9,29.89,WNW,295,6.0,6.0,78,0.00,,,1.69,Wunderground v.1.15,2013-02-07 16:50:00,
2013-02-07 10:55:00,69.4,61.9,29.89,WNW,296,7.0,9.0,77,0.00,,,1.69,Wunderground v.1.15,2013-02-07 16:55:00,
2013-02-07 11:00:00,69.4,61.9,29.89,WNW,300,7.0,8.0,77,0.00,,,1.69,Wunderground v.1.15,2013-02-07 17:00:00,
2013-02-07 11:05:00,69.4,61.9,29.89,West,259,7.0,10.0,77,0.00,,,1.69,Wunderground v.1.15,2013-02-07 17:05:00,
2013-02-07 11:10:00,69.6,61.3,29.89,West,277,5.0,6.0,75,0.00,,,1.69,Wunderground v.1.15,2013-02-07 17:10:00,
2013-02-07 11:15:00,69.8,62.6,29.89,WSW,252,5.0,7.0,78,0.00,,,1.69,Wunderground v.1.15,2013-02-07 17:15:00,
2013-02-07 11:20:00,68.6,62.5,29.89,WSW,249,2.0,4.0,81,0.00,,,1.69,Wunderground v.1.15,2013-02-07 17:20:00,
2013-02-07 11:25:00,68.2,62.5,29.89,NW,314,3.0,7.0,82,0.00,,,1.69,Wunderground v.1.15,2013-02-07 17:25:00,
2013-02-07 11:30:00,68.1,62.4,29.90,West,274,2.0,3.0,82,0.00,,,1.69,Wunderground v.1.15,2013-02-07 17:30:00,
2013-02-07 11:35:00,67.6,62.3,29.89,WSW,252,3.0,7.0,83,0.00,,,1.69,Wunderground v.1.15,2013-02-07 17:35:00,
2013-02-07 11:40:00,67.5,62.2,29.89,SW,224,4.0,4.0,83,0.00,,,1.69,Wunderground v.1.15,2013-02-07 17:40:00,
2013-02-07 11:45:00,67.5,62.5,29.89,SW,219,5.0,9.0,84,0.00,,,1.69,Wunderground v.1.15,2013-02-07 17:45:00,
2013-02-07 11:50:00,67.5,62.8,29.89,WNW,286,2.0,3.0,85,0.00,,,1.69,Wunderground v.1.15,2013-02-07 17:50:00,
2013-02-07 11:55:00,67.6,62.3,29.89,West,260,1.0,8.0,83,0.00,,,1.69,Wunderground v.1.15,2013-02-07 17:55:00,
2013-02-07 12:00:00,67.8,62.4,29.89,WSW,250,3.0,3.0,83,0.00,,,1.69,Wunderground v.1.15,2013-02-07 18:00:00,
2013-02-07 12:05:00,68.1,63.1,29.88,SW,214,3.0,5.0,84,0.00,,,1.69,Wunderground v.1.15,2013-02-07 18:05:00,
2013-02-07 12:10:00,67.5,62.8,29.88,SW,223,3.0,5.0,85,0.00,,,1.69,Wunderground v.1.15,2013-02-07 18:10:00,
2013-02-07 12:15:00,67.7,63.4,29.88,WSW,245,1.0,6.0,86,0.00,,,1.69,Wunderground v.1.15,2013-02-07 18:15:00,
2013-02-07 12:20:00,68.8,63.8,29.88,SW,233,3.0,4.0,84,0.00,,,1.69,Wunderground v.1.15,2013-02-07 18:20:00,
2013-02-07 12:25:00,68.6,63.2,29.88,WSW,249,7.0,7.0,83,0.00,,,1.69,Wunderground v.1.15,2013-02-07 18:25:00,
2013-02-07 12:30:00,68.6,63.6,29.88,WSW,240,7.0,8.0,84,0.00,,,1.69,Wunderground v.1.15,2013-02-07 18:30:00,
2013-02-07 12:35:00,68.9,63.5,29.87,SSW,201,1.0,9.0,83,0.00,,,1.69,Wunderground v.1.15,2013-02-07 18:35:00,
2013-02-07 12:40:00,69.2,63.5,29.87,SW,225,2.0,3.0,82,0.00,,,1.69,Wunderground v.1.15,2013-02-07 18:40:00,
2013-02-07 12:45:00,69.8,63.7,29.86,WSW,248,3.0,11.0,81,0.00,,,1.69,Wunderground v.1.15,2013-02-07 18:45:00,
2013-02-07 12:50:00,70.5,64.0,29.86,SSW,203,5.0,5.0,80,0.00,,,1.69,Wunderground v.1.15,2013-02-07 18:50:00,
2013-02-07 12:55:00,71.0,64.2,29.86,West,260,5.0,8.0,79,0.00,,,1.69,Wunderground v.1.15,2013-02-07 18:55:00,
2013-02-07 13:00:00,71.5,62.4,29.86,WNW,290,7.0,7.0,73,0.00,,,1.69,Wunderground v.1.15,2013-02-07 19:00:00,
2013-02-07 13:05:00,71.8,62.7,29.86,West,263,4.0,10.0,73,0.00,,,1.69,Wunderground v.1.15,2013-02-07 19:05:00,
2013-02-07 13:10:00,72.1,62.6,29.86,NW,310,6.0,6.0,72,0.00,,,1.69,Wunderground v.1.15,2013-02-07 19:10:00,
2013-02-07 13:15:00,72.2,62.3,29.86,WNW,294,7.0,11.0,71,0.00,,,1.69,Wunderground v.1.15,2013-02-07 19:15:00,
2013-02-07 13:20:00,72.4,62.5,29.86,NW,314,5.0,6.0,71,0.00,,,1.69,Wunderground v.1.15,2013-02-07 19:20:00,
2013-02-07 13:25:00,72.5,63.0,29.85,WNW,302,5.0,6.0,72,0.00,,,1.69,Wunderground v.1.15,2013-02-07 19:25:00,
2013-02-07 13:30:00,72.6,62.7,29.85,NW,309,4.0,8.0,71,0.00,,,1.69,Wunderground v.1.15,2013-02-07 19:30:00,
2013-02-07 13:35:00,72.7,62.3,29.85,WNW,284,12.0,12.0,70,0.00,,,1.69,Wunderground v.1.15,2013-02-07 19:35:00,
2013-02-07 13:40:00,72.9,63.3,29.85,NW,326,6.0,8.0,72,0.00,,,1.69,Wunderground v.1.15,2013-02-07 19:40:00,
2013-02-07 13:45:00,73.1,62.7,29.85,North,359,9.0,12.0,70,0.00,,,1.69,Wunderground v.1.15,2013-02-07 19:45:00,
2013-02-07 13:50:00,73.1,62.7,29.85,WNW,294,8.0,9.0,70,0.00,,,1.69,Wunderground v.1.15,2013-02-07 19:50:00,
2013-02-07 13:55:00,72.6,61.8,29.85,WNW,296,6.0,12.0,69,0.00,,,1.69,Wunderground v.1.15,2013-02-07 19:55:00,
2013-02-07 14:00:00,72.7,61.9,29.85,WNW,294,11.0,13.0,69,0.00,,,1.69,Wunderground v.1.15,2013-02-07 20:00:00,
2013-02-07 14:05:00,72.9,62.9,29.85,WNW,300,9.0,14.0,71,0.00,,,1.69,Wunderground v.1.15,2013-02-07 20:05:00,
2013-02-07 14:10:00,73.0,62.6,29.85,NNW,333,9.0,11.0,70,0.00,,,1.69,Wunderground v.1.15,2013-02-07 20:10:00,
2013-02-07 14:15:00,72.9,62.1,29.85,NNW,333,10.0,11.0,69,0.00,,,1.69,Wunderground v.1.15,2013-02-07 20:15:00,
2013-02-07 14:20:00,72.9,62.1,29.85,WNW,283,6.0,9.0,69,0.00,,,1.69,Wunderground v.1.15,2013-02-07 20:20:00,
2013-02-07 14:25:00,72.6,61.8,29.85,WNW,294,4.0,11.0,69,0.00,,,1.69,Wunderground v.1.15,2013-02-07 20:25:00,
2013-02-07 14:30:00,72.8,62.0,29.85,NNW,328,7.0,9.0,69,0.00,,,1.69,Wunderground v.1.15,2013-02-07 20:30:00,
2013-02-07 14:35:00,72.8,62.8,29.85,NW,324,5.0,11.0,71,0.00,,,1.69,Wunderground v.1.15,2013-02-07 20:35:00,
2013-02-07 14:40:00,72.6,63.4,29.85,WNW,300,6.0,9.0,73,0.00,,,1.69,Wunderground v.1.15,2013-02-07 20:40:00,
2013-02-07 14:45:00,72.5,62.2,29.85,West,271,8.0,11.0,70,0.00,,,1.69,Wunderground v.1.15,2013-02-07 20:45:00,
2013-02-07 14:50:00,72.5,61.7,29.85,WNW,288,4.0,9.0,69,0.00,,,1.69,Wunderground v.1.15,2013-02-07 20:50:00,
2013-02-07 14:55:00,72.4,62.1,29.85,WNW,283,7.0,13.0,70,0.00,,,1.69,Wunderground v.1.15,2013-02-07 20:55:00,
2013-02-07 15:00:00,72.4,62.1,29.84,WNW,290,4.0,7.0,70,0.00,,,1.69,Wunderground v.1.15,2013-02-07 21:00:00,
2013-02-07 15:05:00,72.3,62.8,29.84,NW,310,3.0,10.0,72,0.00,,,1.69,Wunderground v.1.15,2013-02-07 21:05:00,
2013-02-07 15:10:00,72.4,62.5,29.84,WNW,294,7.0,8.0,71,0.00,,,1.69,Wunderground v.1.15,2013-02-07 21:10:00,
2013-02-07 15:15:00,72.2,61.9,29.85,NNW,330,7.0,10.0,70,0.00,,,1.69,Wunderground v.1.15,2013-02-07 21:15:00,
2013-02-07 15:20:00,72.3,62.0,29.85,WNW,302,7.0,9.0,70,0.00,,,1.69,Wunderground v.1.15,2013-02-07 21:20:00,
2013-02-07 15:25:00,72.2,62.3,29.85,WNW,294,6.0,9.0,71,0.00,,,1.69,Wunderground v.1.15,2013-02-07 21:25:00,
2013-02-07 15:30:00,72.1,62.2,29.85,WNW,300,4.0,6.0,71,0.00,,,1.69,Wunderground v.1.15,2013-02-07 21:30:00,
2013-02-07 15:35:00,72.2,62.3,29.85,NW,319,6.0,13.0,71,0.00,,,1.69,Wunderground v.1.15,2013-02-07 21:35:00,
2013-02-07 15:40:00,72.1,62.6,29.85,NW,316,8.0,8.0,72,0.00,,,1.69,Wunderground v.1.15,2013-02-07 21:40:00,
2013-02-07 15:45:00,72.0,62.1,29.85,NW,316,6.0,10.0,71,0.00,,,1.69,Wunderground v.1.15,2013-02-07 21:45:00,
2013-02-07 15:50:00,72.1,62.2,29.85,NW,323,5.0,7.0,71,0.00,,,1.69,Wunderground v.1.15,2013-02-07 21:50:00,
2013-02-07 15:55:00,71.6,62.1,29.86,NW,306,8.0,11.0,72,0.00,,,1.69,Wunderground v.1.15,2013-02-07 21:55:00,
2013-02-07 16:00:00,71.2,61.7,29.86,NW,304,11.0,11.0,72,0.00,,,1.69,Wunderground v.1.15,2013-02-07 22:00:00,
2013-02-07 16:05:00,71.1,62.0,29.86,NW,319,5.0,11.0,73,0.00,,,1.69,Wunderground v.1.15,2013-02-07 22:05:00,
2013-02-07 16:10:00,71.1,61.6,29.86,West,276,4.0,12.0,72,0.00,,,1.69,Wunderground v.1.15,2013-02-07 22:10:00,
2013-02-07 16:15:00,70.7,61.2,29.86,NW,315,8.0,13.0,72,0.00,,,1.69,Wunderground v.1.15,2013-02-07 22:15:00,
2013-02-07 16:20:00,70.7,62.0,29.87,NNW,328,4.0,7.0,74,0.00,,,1.69,Wunderground v.1.15,2013-02-07 22:20:00,
2013-02-07 16:25:00,70.7,61.2,29.87,NW,319,4.0,10.0,72,0.00,,,1.69,Wunderground v.1.15,2013-02-07 22:25:00,
2013-02-07 16:30:00,70.6,61.5,29.87,WNW,288,7.0,7.0,73,0.00,,,1.69,Wunderground v.1.15,2013-02-07 22:30:00,
2013-02-07 16:35:00,70.2,61.5,29.87,NW,322,2.0,13.0,74,0.00,,,1.69,Wunderground v.1.15,2013-02-07 22:35:00,
2013-02-07 16:40:00,69.9,61.2,29.87,NNW,333,7.0,8.0,74,0.00,,,1.69,Wunderground v.1.15,2013-02-07 22:40:00,
2013-02-07 16:45:00,69.6,61.3,29.87,NW,304,7.0,9.0,75,0.00,,,1.69,Wunderground v.1.15,2013-02-07 22:45:00,
2013-02-07 16:50:00,69.2,60.9,29.87,WNW,300,3.0,7.0,75,0.00,,,1.69,Wunderground v.1.15,2013-02-07 22:50:00,
2013-02-07 16:55:00,68.7,60.5,29.88,WNW,285,6.0,11.0,75,0.00,,,1.69,Wunderground v.1.15,2013-02-07 22:55:00,
2013-02-07 17:01:00,68.3,60.4,29.88,WNW,293,9.0,9.0,76,0.00,,,1.69,Wunderground v.1.15,2013-02-07 23:01:00,
2013-02-07 17:06:00,68.0,60.2,29.88,WNW,294,4.0,9.0,76,0.00,,,1.69,Wunderground v.1.15,2013-02-07 23:06:00,
2013-02-07 17:11:00,67.6,60.1,29.88,WNW,302,3.0,6.0,77,0.00,,,1.69,Wunderground v.1.15,2013-02-07 23:11:00,
2013-02-07 17:16:00,67.3,59.8,29.88,WNW,300,4.0,7.0,77,0.00,,,1.69,Wunderground v.1.15,2013-02-07 23:16:00,
2013-02-07 17:21:00,67.2,59.7,29.88,NW,311,3.0,6.0,77,0.00,,,1.69,Wunderground v.1.15,2013-02-07 23:21:00,
2013-02-07 17:26:00,66.9,59.5,29.88,WNW,296,6.0,6.0,77,0.00,,,1.69,Wunderground v.1.15,2013-02-07 23:26:00,
2013-02-07 17:30:00,66.7,59.6,29.88,WNW,291,4.0,5.0,78,0.00,,,1.69,Wunderground v.1.15,2013-02-07 23:30:00,
2013-02-07 17:35:00,66.4,59.7,29.88,West,281,3.0,6.0,79,0.00,,,1.69,Wunderground v.1.15,2013-02-07 23:35:00,
2013-02-07 17:40:00,66.0,59.7,29.88,WNW,292,3.0,3.0,80,0.00,,,1.69,Wunderground v.1.15,2013-02-07 23:40:00,
2013-02-07 17:45:00,65.6,59.6,29.89,WNW,300,2.0,4.0,81,0.00,,,1.69,Wunderground v.1.15,2013-02-07 23:45:00,
2013-02-07 17:51:00,65.3,59.7,29.89,WNW,287,2.0,3.0,82,0.00,,,1.69,Wunderground v.1.15,2013-02-07 23:51:00,
2013-02-07 17:56:00,65.0,59.4,29.89,WNW,297,2.0,5.0,82,0.00,,,1.69,Wunderground v.1.15,2013-02-07 23:56:00,
2013-02-07 18:01:00,64.8,59.2,29.89,WNW,287,3.0,4.0,82,0.00,,,1.69,Wunderground v.1.15,2013-02-08 00:01:00,
2013-02-07 18:06:00,64.7,59.1,29.89,WNW,291,3.0,6.0,82,0.00,,,1.69,Wunderground v.1.15,2013-02-08 00:06:00,
2013-02-07 18:11:00,64.5,59.2,29.89,WNW,286,2.0,3.0,83,0.00,,,1.69,Wunderground v.1.15,2013-02-08 00:11:00,
2013-02-07 18:16:00,64.3,59.0,29.90,WNW,297,2.0,4.0,83,0.00,,,1.69,Wunderground v.1.15,2013-02-08 00:16:00,
2013-02-07 18:21:00,64.1,59.2,29.90,WNW,300,1.0,1.0,84,0.00,,,1.69,Wunderground v.1.15,2013-02-08 00:21:00,
2013-02-07 18:26:00,63.9,59.0,29.90,WNW,300,1.0,1.0,84,0.00,,,1.69,Wunderground v.1.15,2013-02-08 00:26:00,
2013-02-07 18:31:00,63.7,59.1,29.89,WNW,294,0.0,1.0,85,0.00,,,1.69,Wunderground v.1.15,2013-02-08 00:31:00,
2013-02-07 18:36:00,63.5,58.9,29.90,WNW,295,0.0,1.0,85,0.00,,,1.69,Wunderground v.1.15,2013-02-08 00:36:00,
2013-02-07 18:41:00,63.4,58.8,29.89,NW,305,1.0,1.0,85,0.00,,,1.69,Wunderground v.1.15,2013-02-08 00:41:00,
2013-02-07 18:46:00,63.3,59.0,29.89,NW,305,0.0,1.0,86,0.00,,,1.69,Wunderground v.1.15,2013-02-08 00:46:00,
2013-02-07 18:51:00,63.0,58.7,29.90,NW,305,0.0,0.0,86,0.00,,,1.69,Wunderground v.1.15,2013-02-08 00:51:00,
2013-02-07 18:56:00,62.6,58.7,29.90,NW,305,0.0,0.0,87,0.00,,,1.69,Wunderground v.1.15,2013-02-08 00:56:00,
2013-02-07 19:01:00,62.1,58.5,29.90,NW,305,0.0,0.0,88,0.00,,,1.69,Wunderground v.1.15,2013-02-08 01:01:00,
2013-02-07 19:05:00,61.8,58.5,29.90,NW,305,0.0,1.0,89,0.00,,,1.69,Wunderground v.1.15,2013-02-08 01:05:00,
2013-02-07 19:10:00,61.9,58.6,29.90,NW,305,0.0,1.0,89,0.00,,,1.69,Wunderground v.1.15,2013-02-08 01:10:00,
2013-02-07 19:15:00,61.8,58.5,29.90,WNW,300,1.0,2.0,89,0.00,,,1.69,Wunderground v.1.15,2013-02-08 01:15:00,
2013-02-07 19:21:00,61.4,58.4,29.91,WNW,300,1.0,1.0,90,0.00,,,1.69,Wunderground v.1.15,2013-02-08 01:21:00,
2013-02-07 19:26:00,61.2,58.6,29.91,WNW,292,0.0,1.0,91,0.00,,,1.69,Wunderground v.1.15,2013-02-08 01:26:00,
2013-02-07 19:31:00,61.0,58.4,29.91,WNW,292,0.0,0.0,91,0.00,,,1.69,Wunderground v.1.15,2013-02-08 01:31:00,
2013-02-07 19:35:00,60.8,58.2,29.91,WNW,292,0.0,1.0,91,0.00,,,1.69,Wunderground v.1.15,2013-02-08 01:35:00,
2013-02-07 19:40:00,60.7,58.1,29.91,WNW,293,0.0,1.0,91,0.00,,,1.69,Wunderground v.1.15,2013-02-08 01:40:00,
2013-02-07 19:45:00,60.6,58.0,29.91,WNW,293,0.0,1.0,91,0.00,,,1.69,Wunderground v.1.15,2013-02-08 01:45:00,
2013-02-07 19:50:00,60.2,57.9,29.92,WNW,293,0.0,0.0,92,0.00,,,1.69,Wunderground v.1.15,2013-02-08 01:50:00,
2013-02-07 19:55:00,60.2,58.2,29.92,WNW,293,0.0,0.0,93,0.00,,,1.69,Wunderground v.1.15,2013-02-08 01:55:00,
2013-02-07 20:00:00,60.4,58.1,29.92,WNW,292,0.0,0.0,92,0.00,,,1.69,Wunderground v.1.15,2013-02-08 02:00:00,
2013-02-07 20:06:00,60.6,58.3,29.92,WNW,292,1.0,1.0,92,0.00,,,1.69,Wunderground v.1.15,2013-02-08 02:06:00,
2013-02-07 20:11:00,60.8,58.2,29.92,WNW,292,0.0,0.0,91,0.00,,,1.69,Wunderground v.1.15,2013-02-08 02:11:00,
2013-02-07 20:16:00,60.8,58.2,29.92,WNW,293,0.0,0.0,91,0.00,,,1.69,Wunderground v.1.15,2013-02-08 02:16:00,
2013-02-07 20:21:00,60.6,58.0,29.92,WNW,293,0.0,0.0,91,0.00,,,1.69,Wunderground v.1.15,2013-02-08 02:21:00,
2013-02-07 20:26:00,60.4,57.8,29.92,WNW,293,0.0,0.0,91,0.00,,,1.69,Wunderground v.1.15,2013-02-08 02:26:00,
2013-02-07 20:31:00,60.3,58.0,29.92,WNW,292,0.0,0.0,92,0.00,,,1.69,Wunderground v.1.15,2013-02-08 02:31:00,
2013-02-07 20:36:00,60.1,57.8,29.92,WNW,292,0.0,0.0,92,0.00,,,1.69,Wunderground v.1.15,2013-02-08 02:36:00,
2013-02-07 20:41:00,59.9,57.6,29.92,WNW,293,0.0,0.0,92,0.00,,,1.69,Wunderground v.1.15,2013-02-08 02:41:00,
2013-02-07 20:46:00,59.7,57.7,29.92,WNW,293,0.0,1.0,93,0.00,,,1.69,Wunderground v.1.15,2013-02-08 02:46:00,
2013-02-07 20:51:00,59.7,58.0,29.92,West,260,0.0,0.0,94,0.00,,,1.69,Wunderground v.1.15,2013-02-08 02:51:00,
2013-02-07 20:56:00,59.6,58.2,29.93,West,260,1.0,1.0,95,0.00,,,1.69,Wunderground v.1.15,2013-02-08 02:56:00,
2013-02-07 21:01:00,59.5,58.1,29.93,West,260,0.0,0.0,95,0.00,,,1.69,Wunderground v.1.15,2013-02-08 03:01:00,
2013-02-07 21:06:00,59.4,58.0,29.93,West,260,0.0,1.0,95,0.00,,,1.69,Wunderground v.1.15,2013-02-08 03:06:00,
2013-02-07 21:11:00,59.3,57.9,29.93,West,260,0.0,0.0,95,0.00,,,1.69,Wunderground v.1.15,2013-02-08 03:11:00,
2013-02-07 21:16:00,59.3,57.9,29.93,West,267,1.0,2.0,95,0.00,,,1.69,Wunderground v.1.15,2013-02-08 03:16:00,
2013-02-07 21:21:00,59.4,58.0,29.93,West,276,0.0,1.0,95,0.00,,,1.69,Wunderground v.1.15,2013-02-08 03:21:00,
2013-02-07 21:26:00,59.3,57.6,29.93,West,276,0.0,1.0,94,0.00,,,1.69,Wunderground v.1.15,2013-02-08 03:26:00,
2013-02-07 21:31:00,59.1,57.4,29.93,West,276,0.0,1.0,94,0.00,,,1.69,Wunderground v.1.15,2013-02-08 03:31:00,
2013-02-07 21:36:00,58.9,57.5,29.93,West,275,0.0,1.0,95,0.00,,,1.69,Wunderground v.1.15,2013-02-08 03:36:00,
2013-02-07 21:41:00,58.8,57.4,29.93,West,276,0.0,0.0,95,0.00,,,1.69,Wunderground v.1.15,2013-02-08 03:41:00,
2013-02-07 21:46:00,59.0,57.6,29.93,West,276,0.0,0.0,95,0.00,,,1.69,Wunderground v.1.15,2013-02-08 03:46:00,
2013-02-07 21:51:00,58.8,57.4,29.93,West,276,0.0,0.0,95,0.00,,,1.69,Wunderground v.1.15,2013-02-08 03:51:00,
2013-02-07 21:56:00,58.5,57.1,29.93,West,276,0.0,0.0,95,0.00,,,1.69,Wunderground v.1.15,2013-02-08 03:56:00,
2013-02-07 22:01:00,58.3,57.2,29.93,West,276,0.0,0.0,96,0.00,,,1.69,Wunderground v.1.15,2013-02-08 04:01:00,
2013-02-07 22:06:00,58.1,57.0,29.93,West,276,0.0,0.0,96,0.00,,,1.69,Wunderground v.1.15,2013-02-08 04:06:00,
2013-02-07 22:11:00,57.9,56.8,29.93,West,276,0.0,0.0,96,0.00,,,1.69,Wunderground v.1.15,2013-02-08 04:11:00,
2013-02-07 22:16:00,57.8,57.0,29.93,West,276,0.0,0.0,97,0.00,,,1.69,Wunderground v.1.15,2013-02-08 04:16:00,
2013-02-07 22:21:00,57.5,56.7,29.93,West,276,0.0,0.0,97,0.00,,,1.69,Wunderground v.1.15,2013-02-08 04:21:00,
2013-02-07 22:26:00,57.2,56.4,29.93,West,276,0.0,0.0,97,0.00,,,1.69,Wunderground v.1.15,2013-02-08 04:26:00,
2013-02-07 22:31:00,57.0,56.2,29.93,West,276,0.0,0.0,97,0.00,,,1.69,Wunderground v.1.15,2013-02-08 04:31:00,
2013-02-07 22:36:00,56.9,56.3,29.93,West,276,0.0,0.0,98,0.00,,,1.69,Wunderground v.1.15,2013-02-08 04:36:00,
2013-02-07 22:41:00,57.1,56.5,29.94,West,276,0.0,0.0,98,0.00,,,1.69,Wunderground v.1.15,2013-02-08 04:41:00,
2013-02-07 22:46:00,57.1,56.5,29.94,West,276,0.0,0.0,98,0.00,,,1.69,Wunderground v.1.15,2013-02-08 04:46:00,
2013-02-07 22:51:00,57.0,56.4,29.94,West,276,0.0,0.0,98,0.00,,,1.69,Wunderground v.1.15,2013-02-08 04:51:00,
2013-02-07 22:56:00,57.0,56.4,29.94,West,276,0.0,0.0,98,0.00,,,1.69,Wunderground v.1.15,2013-02-08 04:56:00,
2013-02-07 23:00:00,56.9,56.3,29.94,West,276,0.0,0.0,98,0.00,,,1.69,Wunderground v.1.15,2013-02-08 05:00:00,
2013-02-07 23:05:00,56.5,55.9,29.94,West,276,0.0,0.0,98,0.00,,,1.69,Wunderground v.1.15,2013-02-08 05:05:00,
2013-02-07 23:10:00,56.6,56.0,29.94,West,276,0.0,0.0,98,0.00,,,1.69,Wunderground v.1.15,2013-02-08 05:10:00,
2013-02-07 23:15:00,56.6,56.3,29.93,West,276,0.0,0.0,99,0.00,,,1.69,Wunderground v.1.15,2013-02-08 05:15:00,
2013-02-07 23:20:00,56.6,56.3,29.93,West,276,0.0,0.0,99,0.00,,,1.69,Wunderground v.1.15,2013-02-08 05:20:00,
2013-02-07 23:25:00,56.8,56.5,29.93,West,276,0.0,0.0,99,0.00,,,1.69,Wunderground v.1.15,2013-02-08 05:25:00,
2013-02-07 23:31:00,56.8,56.5,29.93,West,276,0.0,0.0,99,0.00,,,1.69,Wunderground v.1.15,2013-02-08 05:31:00,
2013-02-07 23:36:00,56.8,56.5,29.93,West,276,0.0,0.0,99,0.00,,,1.69,Wunderground v.1.15,2013-02-08 05:36:00,
2013-02-07 23:41:00,56.6,56.3,29.93,West,276,0.0,0.0,99,0.00,,,1.69,Wunderground v.1.15,2013-02-08 05:41:00,
2013-02-07 23:46:00,56.4,56.1,29.93,West,276,0.0,0.0,99,0.00,,,1.69,Wunderground v.1.15,2013-02-08 05:46:00,
2013-02-07 23:51:00,56.3,56.0,29.93,West,276,0.0,0.0,99,0.00,,,1.69,Wunderground v.1.15,2013-02-08 05:51:00,
2013-02-07 23:56:00,56.6,56.3,29.94,West,276,0.0,0.0,99,0.00,,,0.00,Wunderground v.1.15,2013-02-08 05:56:00,